CZ-6A DEB, 54275

Orbit data source: Space-Track

CZ-6A DEB, 54275 is space debris in SSO originally from a launch on Fri, 11 Nov 2022 UTC launched from the Taiyaun Space Center, China (TSC). Debris objects in space refer to the collection of defunct objects orbiting the Earth. Examples of debris include non-operational satellites, rocket bodies, and fragments generated from explosions, collisions, or faulty payload assembly.

Loading next visibility...
Identifier
54275, 2022-151S
Orbit
SSO
Country
Flag of CNCN / PRC
Related business
Manufacturer
SAST
Mission
Spacecraft
Bus & Motor
Unknown
Mass
Unknown
Launch date (UTC)
2022-11-11 (4 years ago)
Launch vehicle
Unknown
Launch site
Taiyaun Space Center, China (TSC)
Object type
Payload
Rocket body
Debris
Shape & HBR
Unknown shape, 0.1 m
Radar Cross Section
Small (<0.1 m²)

Expand to show TLE details & history
Last TLE update: 14 hours ago

TLE from 14 hours ago
0 CZ-6A DEB
1 54275U 22151S   26207.25379419  .00015797  00000-0  23692-2 0  9994
2 54275  98.8194 312.2950 0078742 158.1028 202.3573 14.72576001195953
Epoch: 2026-07-26T06:05Z
TLE epoch observation values (Epoch: 2026-07-26T06:05:27.818Z)
Latitude
-0.00001°
Longitude
-83.02528°
Altitude
707.114 km
Speed
7.475 km/s
True Right ascension
20h 49m 10s
True Declination
0° 00' 00"
Sunlit
Object was in full shadow at epoch
Visualization orbit readout
Latitude
Unknown
Longitude
Unknown
Altitude
Unknown
Speed
Unknown
Apparent Right ascension
Unknown
Apparent Declination
Unknown
Sunlit
N/A
Visualization observer readout
Local Sidereal Time
09:25:33
Azimuth
Unknown
Elevation
Unknown
Doppler factor
Unknown
Orbital elements
Apogee altitude
705.291 km
Perigee altitude
594.61 km
Semi-major axis
7,028.087 km
Eccentricity
0.00787
Inclination
98.8194°
RAAN
312.295°
Arg. of periapsis
158.1028°
True anomaly
202.01717°
Mean anomaly
202.3573°
Eccentric anomaly
202.18693°
Mean motion
3.68373 °/min
Orbital period
97.73 mins
BSTAR
0.0023692
Loading maneuver chart data...
Computing Atmospheric mass density...

Documentation

Showing up to 5 results
|